Weather in Nivnoye

Russia / Bryansk Oblast     53°10′49″N   32°35′00″E
temp.,
°C
wind,
m/s
gust,
m/s
humid.,
%
clouds,
%
prec.,
mm/h
press.,
hPa
HPBL,
m
13 april, tue
tue1300:00+10e2392100 0.0 102162
03:00+9e119287 0.0 102110
06:00+8ese2292100 0.0 102113
09:00+13se487799 0.0 1021348
12:00+15sse586997 0.0 1020897
15:00+14s477183 0.0 1020637
18:00+14ssw3573100 0.0 1019436
21:00+11s1286100 0.2 101932
14 april, wed
wed1400:00+11se119156 0.1 101812
03:00+10ssw2695100 0.4 1018199
06:00+9sse2697100 0.1 1017146
09:00+10sse4886100 0.1 1018463
12:00+12sse3575100 0.0 1017651
15:00+15sse4560100 0.5 10161251
18:00+14se2467100 0.3 1015304
21:00+11e2279100 0.4 101616
15 april, thu
thu1500:00+9ese2285100 0.4 101515
03:00+9e2289100 0.4 101512
06:00+9e2291100 0.2 101461
09:00+9ene2397100 1.8 1014104
12:00+13ese4671100 0.8 10131012
15:00+14e566798 1.8 10131277
18:00+12ene467547 0.4 1013685
21:00+9ne3891100 0.7 1013221
16 april, fri
fri1600:00+8ene259594 0.4 1013112
03:00+8e249394 0.5 101369
06:00+8ene2493100 0.1 1013107
09:00+8e279699 2.3 1013394
12:00+12ene577497 0.6 10141036
15:00+11ene4781100 1.8 1014601
18:00+12ese467082 1.4 1014688
21:00+8se23825 1.5 101656
17 april, sat
sat1700:00+6se22867 0.0 101717
03:00+5ese22894 0.0 101829
06:00+4se239166 0.0 101946
09:00+8sse1272100 0.0 1020303
12:00+12nne2257100 0.0 1020950
15:00+10ene3789100 1.6 1019695
18:00+7sw4895100 2.8 1020290
21:00+7wsw239682 6.1 1020126